Powrót do katalogu

STARLINK-37189

AktywnyŁącznośćSSO
NORAD 68603·PAYLOAD·🇺🇸 United States

Wystrzelony Apr 5, 2026 z Vandenberg Space Force Base

Loading…

Następne Przeloty (najbliższe 24 godziny)

TLE

ŚwieżeSource: CelesTrak SupGP

Epoka: Sep 15, 2026, 04:29 UTC

1 68603C 26073B   26258.18729167 -.00053936  00000+0 -16735-2 0  2584
2 68603  97.2848  96.2280 0001723  87.8667 256.5025 15.33481920    17

Śledź STARLINK-37189 w czasie rzeczywistym z AllMySat

Download on the App Store